Location: Châteauvieux
(47.2310°N, 1.3828°E)
Time: 03:08:47
(UTC+00:00)

Cosmos 1271 Rocket - Pass Details

Date: 15 May 2026
Orbit: 421 x 447 km, 81.2° (Epoch: 8 June)

Event Time Altitude Azimuth Distance (km) Brightness Sun altitude
Exits shadow 23:39:44 23° 292° (WNW) 977 4.3 -23.7°
Drops below altitude 10° 23:42:26 10° 345° (NNW) 1,555 6.1 -23.7°
Sets 23:44:47 0° 360° (N) 2,423 7.6 -23.7°
